Weather History for Glasgow, MT

Change the Weather History Date:

Friday, October 14, 2011

  Actual Average Record
Temperature  
Mean Temperature 43 °F 46 °F  
Max Temperature 56 °F 58 °F 83 °F (1964)
Min Temperature 29 °F 33 °F 20 °F (1905)
Degree Days  
Heating Degree Days 22 19  
Month to date heating degree days 120 232  
Since 1 July heating degree days 259 526  
Cooling Degree Days 0 0  
Month to date cooling degree days 16 0  
Year to date cooling degree days 558 532  
Moisture  
Dew Point 28 °F    
Average Humidity 59    
Maximum Humidity 85    
Minimum Humidity 32    
Precipitation  
Precipitation 0.00 in 0.03 in 0.53 in (1975)
Month to date precipitation 0.54 0.41  
Year to date precipitation 21.70 10.52  
Snow  
Snow 0.00 in 0.10 in 5.30 in (1975)
Month to date snowfall 0.0 0.5  
Since 1 July snowfall 0.0 0.7  
Since 1 September snowfall 0.0 0.7  
Snow Depth 0.00 in    
Sea Level Pressure  
Sea Level Pressure 30.06 in    
Wind  
Wind Speed 4 mph (WNW)    
Max Wind Speed 14 mph    
Max Gust Speed 17 mph    
Visibility 10 miles    
Events      
T = Trace of Precipitation, MM = Missing Value Source: NWS Daily Summary

Daily Weather History Graph

Daily Weather History Graph

Search for Another Location

Airport:

Trip Planner

Search our weather history database for the weather conditions in past years. The results will help you decide how hot, cold, wet, or windy it might be!

Date:

Astronomy

Oct. 14, 2011 Rise Set
Actual Time 7:24 AM MDT 6:19 PM MDT
Civil Twilight 6:52 AM MDT 6:51 PM MDT
Nautical Twilight 6:16 AM MDT 7:27 PM MDT
Astronomical Twilight 5:40 AM MDT 8:03 PM MDT
Moon 7:17 PM MDT (10/14) 10:12 AM MDT (10/14)
Length of Visible Light 11h 58m
Length of Day
10h 55m
Waning Gibbous, 94% of the Moon is Illuminated
Oct 14
Waning Gibbous
Oct 19
Last Quarter
Oct 26
New
Nov 2
First Quarter
Nov 10
Full

Hourly Weather History & Observations

Time (MDT) Temp. Windchill Dew Point Humidity Pressure Visibility Wind Dir Wind Speed Gust Speed Precip Events Conditions
12:53 AM 35.1 °F 31.0 °F 28.0 °F 76% 30.06 in 10.0 mi WNW 4.6 mph - N/A   Clear
1:53 AM 35.1 °F 29.3 °F 28.0 °F 76% 30.06 in 10.0 mi West 6.9 mph - N/A   Clear
2:53 AM 33.1 °F 27.7 °F 27.0 °F 78% 30.07 in 10.0 mi WSW 5.8 mph - N/A   Clear
3:53 AM 32.0 °F 27.5 °F 27.0 °F 82% 30.09 in 10.0 mi WNW 4.6 mph - N/A   Clear
4:53 AM 30.0 °F 24.1 °F 26.1 °F 85% 30.11 in 10.0 mi North 5.8 mph - N/A   Clear
5:53 AM 32.0 °F 27.5 °F 27.0 °F 82% 30.11 in 10.0 mi NW 4.6 mph - N/A   Clear
6:53 AM 30.2 °F 25.4 °F 26.6 °F 86% 30.06 in 10.0 mi NW 4.6 mph - N/A   Clear
7:53 AM 30.9 °F 27.5 °F 27.0 °F 85% 30.13 in 10.0 mi WNW 3.5 mph - N/A   Clear
8:53 AM 36.0 °F 33.3 °F 30.0 °F 79% 30.14 in 10.0 mi NNW 3.5 mph - N/A   Clear
9:53 AM 39.2 °F 37.0 °F 30.2 °F 70% 30.08 in 10.0 mi NW 3.5 mph - N/A   Clear
10:53 AM 44.1 °F 41.5 °F 28.9 °F 55% 30.14 in 10.0 mi West 4.6 mph - N/A   Clear
11:53 AM 48.0 °F - 30.0 °F 50% 30.12 in 10.0 mi NW 4.6 mph - N/A   Clear
12:53 PM 50.0 °F - 30.2 °F 47% 30.06 in 10.0 mi WNW 6.9 mph - N/A   Clear
1:53 PM 52.0 °F - 30.0 °F 43% 30.08 in 10.0 mi WNW 6.9 mph - N/A   Clear
2:53 PM 55.0 °F - 28.9 °F 37% 30.06 in 10.0 mi WNW 8.1 mph - N/A   Clear
3:53 PM 55.0 °F - 26.1 °F 33% 30.04 in 10.0 mi West 9.2 mph - N/A   Clear
4:53 PM 53.1 °F - 26.1 °F 35% 30.04 in 10.0 mi West 11.5 mph - N/A   Clear
5:53 PM 51.1 °F - 28.9 °F 43% 30.04 in 10.0 mi WSW 3.5 mph - N/A   Clear
6:53 PM 48.9 °F - 28.9 °F 46% 30.03 in 10.0 mi Calm Calm - N/A   Clear
7:53 PM 48.9 °F - 28.9 °F 46% 30.02 in 10.0 mi Calm Calm - N/A   Mostly Cloudy
8:53 PM 46.0 °F - 30.0 °F 54% 30.01 in 10.0 mi Calm Calm - N/A   Overcast
9:53 PM 48.0 °F - 28.0 °F 46% 30.00 in 10.0 mi Calm Calm - N/A   Overcast
10:53 PM 48.2 °F - 26.6 °F 43% 29.94 in 10.0 mi Calm Calm - N/A   Overcast
11:53 PM 46.9 °F - 28.9 °F 50% 29.96 in 10.0 mi Calm Calm - N/A   Overcast